TimeCDT,TemperatureF,Dew PointF,Humidity,Sea Level PressureIn,VisibilityMPH,Wind Direction,Wind SpeedMPH,Gust SpeedMPH,PrecipitationIn,Events,Conditions,WindDirDegrees,DateUTC
12:52 AM,48.9,46.0,90,30.23,10.0,North,4.6,-,N/A,,Clear,10,2013-09-13 05:52:00
1:52 AM,46.0,45.0,96,30.24,10.0,Calm,Calm,-,N/A,,Clear,0,2013-09-13 06:52:00
2:52 AM,46.9,44.1,90,30.24,10.0,NNW,3.5,-,N/A,,Clear,340,2013-09-13 07:52:00
3:52 AM,45.0,43.0,93,30.24,10.0,North,4.6,-,N/A,,Clear,360,2013-09-13 08:52:00
4:52 AM,44.1,43.0,96,30.24,10.0,North,4.6,-,N/A,,Clear,350,2013-09-13 09:52:00
5:52 AM,43.0,42.1,97,30.25,10.0,NW,5.8,-,N/A,,Clear,310,2013-09-13 10:52:00
6:52 AM,43.0,42.1,97,30.26,10.0,WNW,3.5,-,N/A,,Clear,300,2013-09-13 11:52:00
7:52 AM,46.9,45.0,93,30.27,10.0,Calm,Calm,-,N/A,,Clear,0,2013-09-13 12:52:00
8:52 AM,55.0,48.9,80,30.28,10.0,ENE,4.6,-,N/A,,Clear,60,2013-09-13 13:52:00
9:52 AM,59.0,50.0,72,30.28,10.0,ESE,3.5,-,N/A,,Clear,110,2013-09-13 14:52:00
10:52 AM,64.0,48.0,56,30.27,10.0,Calm,Calm,-,N/A,,Clear,0,2013-09-13 15:52:00
11:52 AM,66.9,45.0,45,30.25,10.0,Calm,Calm,-,N/A,,Clear,0,2013-09-13 16:52:00
12:52 PM,68.0,44.1,42,30.23,10.0,NE,8.1,-,N/A,,Clear,40,2013-09-13 17:52:00
1:52 PM,70.0,44.1,39,30.21,10.0,Variable,5.8,-,N/A,,Clear,0,2013-09-13 18:52:00
2:52 PM,70.0,44.1,39,30.18,10.0,Variable,4.6,-,N/A,,Clear,0,2013-09-13 19:52:00
3:52 PM,71.1,44.1,38,30.17,10.0,East,6.9,-,N/A,,Clear,90,2013-09-13 20:52:00
4:52 PM,71.1,42.1,35,30.15,10.0,Variable,3.5,-,N/A,,Clear,0,2013-09-13 21:52:00
5:52 PM,70.0,44.1,39,30.14,10.0,SE,4.6,-,N/A,,Clear,130,2013-09-13 22:52:00
6:52 PM,66.9,46.9,49,30.13,10.0,ESE,4.6,-,N/A,,Clear,120,2013-09-13 23:52:00
7:52 PM,55.9,46.9,72,30.12,10.0,SE,6.9,-,N/A,,Clear,140,2013-09-14 00:52:00
8:52 PM,52.0,45.0,77,30.12,10.0,SSE,6.9,-,N/A,,Clear,150,2013-09-14 01:52:00
9:52 PM,51.1,45.0,80,30.11,10.0,SE,6.9,-,N/A,,Clear,140,2013-09-14 02:52:00
10:52 PM,48.0,43.0,83,30.11,10.0,Calm,Calm,-,N/A,,Clear,0,2013-09-14 03:52:00
11:52 PM,48.0,44.1,86,30.11,10.0,South,5.8,-,N/A,,Clear,180,2013-09-14 04:52:00